星链-1769 (STARLINK-1769 )

导读 | 豆包AI

STARLINK-1769是美国太空探索技术公司(SpaceX)星链星座的一颗卫星,于2020年9月3日在美国发射升空。星链项目旨在搭建全球卫星互联网络,为全球用户提供高速低延迟宽带服务,这颗卫星入轨后,承担了星座组网中部分通信与信号传输任务。

Basic Information
目录编号:
46382
目录名称:
STARLINK-1769
国际标识:
2020-062BK
轨道中心:
EARTH
卫星名称:
星链-1769
卫星全名:
星链-1769 (STARLINK-1769 )
卫星状态:
已陨落 最后检测时间 2026-02-15
发射日期:
2020-09-03 UTC
国别 :
美国 (US)
星等 :
--
Orbit Information
数据来源 国际轨道数据
星历时间: 2026-02-15T15:22:54+0800
轨道信息已过期27天
半长轴: 6519.181km
偏心率: 0.0001375
轨道倾角: 53.017°
近地点辐角 168.333°
升交点赤经 5.363°
平近点角 191.775°
近地点: 140.147km
远地点: 141.941km
周期: 87.307分钟
每日圈数: 16.493517
Detailed Information
固有亮度:
5
最大亮度:
2.5
卫星平台:
Starlink V1.0
覆盖范围:
全球
运营商:
太空探索技术公司
运营商所在国:
美国
制造商(研发单位):
太空探索技术公司
制造商所在国:
美国
使用方式:
暂无
Satellite Introduction
星链(Starlink)计划是由太空探索技术公司(SpaceX)提出的一个巨型低轨卫星互联网星座项目,计划在2019年至2024年间在太空搭建由约1.2万颗卫星组成的“星链”网络,其中1584颗将部署在地球上空550千米处的近地轨道,并从2020年开始工作。该卫星仍在工作。